Satellite-Ground Cal/Val Region Overpasses Predictions

Prediction of Satellite NPP Overpassing Cal/Val Region: PacNW

Region Location: (Latitude: 10.00, Longitude: 139.50) to (Latitude: 22.70, Longitude: 165.60).

Table of predicted overpasses for the next 14.0 days since TLE Epoch: 3/22/2020
Interval Starting Time Starting Location Ending Time Ending Location
1 03/22/2020 15:42:35 ( 22.66, 149.18) 03/22/2020 15:46:10 ( 10.04, 146.17)
2 03/23/2020 02:51:40 ( 10.01, 156.71) 03/23/2020 02:55:16 ( 22.69, 153.69)
3 03/23/2020 15:23:34 ( 22.65, 153.93) 03/23/2020 15:27:09 ( 10.03, 150.93)
4 03/24/2020 02:32:39 ( 10.02, 161.46) 03/24/2020 02:36:14 ( 22.64, 158.46)
5 03/24/2020 15:04:31 ( 22.70, 158.70) 03/24/2020 15:08:07 ( 10.02, 155.68)
6 03/25/2020 02:14:23 ( 12.74, 165.59) 03/25/2020 02:17:12 ( 22.66, 163.21)
7 03/25/2020 03:55:07 ( 10.04, 140.84) 03/25/2020 03:56:45 ( 15.80, 139.50)
8 03/25/2020 14:45:30 ( 22.68, 163.45) 03/25/2020 14:49:06 ( 10.00, 160.44)
9 03/26/2020 03:36:06 ( 10.06, 145.59) 03/26/2020 03:39:41 ( 22.68, 142.59)
10 03/26/2020 14:29:34 ( 11.75, 165.59) 03/26/2020 14:30:03 ( 10.05, 165.20)
11 03/26/2020 16:07:58 ( 22.66, 142.83) 03/26/2020 16:11:33 ( 10.04, 139.83)
12 03/27/2020 03:17:03 ( 10.01, 150.36) 03/27/2020 03:20:39 ( 22.69, 147.34)
13 03/27/2020 15:48:57 ( 22.65, 147.58) 03/27/2020 15:52:32 ( 10.03, 144.58)
14 03/28/2020 02:58:02 ( 10.02, 155.11) 03/28/2020 03:01:37 ( 22.65, 152.11)
15 03/28/2020 15:29:54 ( 22.69, 152.35) 03/28/2020 15:33:30 ( 10.01, 149.34)
16 03/29/2020 02:39:00 ( 10.04, 159.87) 03/29/2020 02:42:35 ( 22.66, 156.86)
17 03/29/2020 15:10:53 ( 22.68, 157.11) 03/29/2020 15:14:28 ( 10.06, 154.10)
18 03/30/2020 02:19:59 ( 10.05, 164.62) 03/30/2020 02:23:34 ( 22.68, 161.62)
19 03/30/2020 14:51:51 ( 22.66, 161.86) 03/30/2020 14:55:26 ( 10.04, 158.86)
20 03/31/2020 03:42:26 ( 10.02, 144.01) 03/31/2020 03:46:02 ( 22.70, 140.99)
21 03/31/2020 14:34:01 ( 18.48, 165.59) 03/31/2020 14:36:25 ( 10.03, 163.61)
22 03/31/2020 16:14:20 ( 22.64, 141.24) 03/31/2020 16:16:22 ( 15.49, 139.50)
23 04/01/2020 03:23:25 ( 10.03, 148.77) 04/01/2020 03:27:00 ( 22.65, 145.76)
24 04/01/2020 15:55:18 ( 22.69, 146.00) 04/01/2020 15:58:54 ( 10.01, 142.99)
25 04/02/2020 03:04:23 ( 10.05, 153.52) 04/02/2020 03:07:58 ( 22.67, 150.52)
26 04/02/2020 15:36:16 ( 22.67, 150.76) 04/02/2020 15:39:51 ( 10.05, 147.76)
27 04/03/2020 02:45:21 ( 10.00, 158.29) 04/03/2020 02:48:57 ( 22.69, 155.27)
28 04/03/2020 15:17:15 ( 22.66, 155.51) 04/03/2020 15:20:50 ( 10.03, 152.51)
29 04/04/2020 02:26:19 ( 10.02, 163.04) 04/04/2020 02:29:54 ( 22.64, 160.04)
30 04/04/2020 14:58:12 ( 22.70, 160.28) 04/04/2020 15:01:48 ( 10.02, 157.26)
31 04/05/2020 02:09:58 ( 19.43, 165.59) 04/05/2020 02:10:53 ( 22.66, 164.79)


NCC Satellite Cal/Val Overpasses Prediction Service
